Regional Weather Roundup
Issued by NWS

Home | Current Version | Previous Version | Text Only | Print | Product List | Glossary Off
Versions: 1 2 3 4 5 6 7 8 9 10 11 12 13 14 15 16 17 18 19 20 21 22 23 24 25 26 27 28 29 30 31 32 33 34 35 36 37 38 39 40 41 42 43 44 45 46 47 48 49 50

000
ASUS43 KOAX 300702
RWRNE

WEATHER ROUNDUP FOR NEBRASKA
NATIONAL WEATHER SERVICE OMAHA NE
100 AM CST FRI JAN 30 2015

NOTES: SATELLITE DATA IS BEING USED TO AUGMENT CLOUD COVER ABOVE
       12000 FEET.
       "FAIR" INDICATES FEW OR NO CLOUDS BELOW 12,000 FEET WITH NO
       SIGNIFICANT WEATHER AND/OR OBSTRUCTIONS TO VISIBILITY.

  * THESE STATIONS DO NOT REPORT WEATHER SUCH AS RAIN...SNOW OR FOG.

NEZ001>004-019>022-054>056-300800-
NEBRASKA PANHANDLE

CITY           SKY/WX    TMP DP  RH WIND       PRES   REMARKS
SCOTTSBLUFF    MOCLDY    28  21  75 E8        30.34F WCI  20
ALLIANCE       PTCLDY    24  18  77 S3        30.35F
CHADRON        CLEAR     32  19  58 SW7       30.31F WCI  26
SIDNEY         MOCLDY    28  19  69 S8        30.36F WCI  20
$$

NEZ057>060-069>072-079>082-300800-
SOUTHWEST NEBRASKA

CITY           SKY/WX    TMP DP  RH WIND       PRES   REMARKS
NORTH PLATTE   PTCLDY    17  12  80 CALM      30.44F
IMPERIAL       PTCLDY    26  18  71 SW7       30.43F WCI  18
LEXINGTON      PTCLDY    19  16  88 CALM      30.48S
MCCOOK         CLEAR     23  16  74 CALM      30.46F
$$

NEZ005>010-023>029-035>040-094-300800-
NORTH CENTRAL NEBRASKA

CITY           SKY/WX    TMP DP  RH WIND       PRES   REMARKS
VALENTINE      CLEAR     21  17  84 CALM      30.40F
BROKEN BOW     CLEAR     17  13  84 CALM      30.45F
ORD            CLEAR     17  13  84 CALM      30.48F
$$

NEZ041-046>049-061>064-073>077-083>087-300800-
SOUTH CENTRAL NEBRASKA

CITY           SKY/WX    TMP DP  RH WIND       PRES   REMARKS
GRAND ISLAND   CLEAR     22  19  89 E7        30.52S WCI  13
AURORA         CLEAR     22  20  93 SE3       30.53S
HASTINGS       FAIR      22  14  71 CALM      30.51R
KEARNEY *      CLEAR     21  16  79 CALM      30.50S
YORK           PTCLDY    18  18 100 CALM      30.54R
$$

NEZ011>018-030>034-042>045-300800-
NORTHEAST NEBRASKA

CITY           SKY/WX    TMP DP  RH WIND       PRES   REMARKS
NORFOLK        CLEAR     20  17  88 CALM      30.51F
ALBION         CLEAR     17  14  88 CALM      30.51S
BLAIR          CLEAR     25  20  80 N6        30.52S WCI  18
COLUMBUS *     CLEAR     19  12  73 N3        30.55S
FREMONT        CLEAR     21  19  91 CALM      30.54S
TEKAMAH        CLEAR     22  18  85 N8        30.56S WCI  12
$$

NEZ050>053-065>068-078-088>093-300800-
SOUTHEAST NEBRASKA

CITY           SKY/WX    TMP DP  RH WIND       PRES   REMARKS
LINCOLN        CLEAR     17  13  84 NW5       30.56S WCI  10
OMAHA EPPLEY   CLEAR     24  19  81 N6        30.55S WCI  17
FALLS CITY     CLEAR     17  15  92 N5        30.53F WCI  10
$$

NEZ044-045-051>053-067-300800-
OMAHA AREA

CITY           SKY/WX    TMP DP  RH WIND       PRES   REMARKS
OMAHA EPPLEY   CLEAR     24  19  81 N6        30.55S WCI  17
BLAIR          CLEAR     25  20  80 N6        30.52S WCI  18
FREMONT        CLEAR     21  19  91 CALM      30.54S
OFFUTT AFB     CLEAR     21  18  87 N1        30.53F
$$



USA.gov is the U.S. government's official web portal to all federal, state and local government web resources and services.